Location: Greenwich
(51.4790°N, 0.0090°E)
Time: 21:39:59
(UTC+01:00)

Vanguard 2 - Visible Passes

Search period start: 12 April 2024 00:00
Search period end: 22 April 2024 00:00
Orbit: 553 x 2917 km, 32.9° (Epoch: 12 April)

Date Brightness Start Highest point End Pass type
(mag) Time Alt. Az. Time Alt. Az. Time Alt. Az.
12 Apr 11.6 02:29:46 10° SSE 02:34:00 11° SE 02:38:09 10° ESE visible
12 Apr 11.2 04:29:48 10° SSW 04:42:44 26° SSE 04:53:54 10° ESE visible
13 Apr 11.5 02:41:38 12° SSE 02:48:05 15° SE 02:56:15 10° ESE visible
13 Apr 11.1 04:43:15 10° SSW 04:57:04 30° SSE 05:08:55 10° ESE visible
14 Apr 11.3 02:55:11 15° S 03:02:11 20° SE 03:12:28 10° ESE visible
14 Apr 11.0 04:56:58 10° SW 05:11:26 33° SSE 05:23:46 10° ESE visible
15 Apr 11.2 03:08:40 17° S 03:16:20 24° SSE 03:28:01 10° ESE visible
15 Apr 10.9 05:10:54 10° SW 05:25:49 36° S 05:38:29 10° ESE visible
16 Apr 11.5 01:20:58 11° SE 01:22:08 11° SE 01:26:35 10° ESE visible
16 Apr 11.1 03:22:05 19° S 03:30:31 28° SSE 03:43:13 10° ESE visible
16 Apr 10.9 05:25:00 10° SW 05:40:12 37° S 05:53:05 10° ESE visible
17 Apr 11.3 01:34:20 15° SE 01:36:03 16° SE 01:44:28 10° ESE visible
17 Apr 11.0 03:35:27 20° SSW 03:44:45 31° SSE 03:58:10 10° ESE visible
18 Apr 11.2 01:47:40 19° SSE 01:50:00 20° SE 02:00:39 10° ESE visible
18 Apr 10.9 03:48:47 19° SSW 03:59:00 34° SSE 04:12:57 10° ESE visible
19 Apr 11.0 02:00:57 22° SSE 02:04:01 24° SE 02:16:10 10° ESE visible
19 Apr 10.9 04:02:03 18° SW 04:13:18 37° SSE 04:27:36 10° ESE visible
20 Apr 10.8 02:14:12 25° S 02:18:05 28° SSE 02:31:18 10° ESE visible
20 Apr 10.8 04:15:18 16° SW 04:27:37 39° S 04:42:09 10° ESE visible
21 Apr 11.3 00:26:18 14° SE 00:26:18 14° SE 00:31:14 10° ESE visible
21 Apr 10.7 02:27:24 27° S 02:32:12 31° SSE 02:46:13 10° ESE visible
21 Apr 10.8 04:28:31 14° SW 04:41:57 40° S 04:56:36 10° ESE visible
